{"data":{"norad_id":54668,"epoch":"2026-05-24T23:33:28.791072Z","epoch_age_seconds":73709,"freshness":"FRESH","line1":"1 54668U 22166AC  26144.98158323  .00000015  00000+0  52728-5 0  9996","line2":"2 54668  87.9260 248.5888 0001895 100.6587 259.4761 13.21825412168374","mean_motion":13.21825412,"eccentricity":0.0001895,"inclination_deg":87.926,"raan_deg":248.5888,"arg_perigee_deg":100.6587,"mean_anomaly_deg":259.4761,"bstar":5.2728e-6,"rev_number":16837,"period_min":108.94025693009,"perigee_km":1176.32376749,"apogee_km":1179.1874507889,"semimajor_km":7555.8926091394,"source":"CELESTRAK","updated_at":"2026-05-25T13:38:22.635550Z"}}